RH
51 36 75 74 55 60 69 72 45 68 46 23 22 21 32 13 7 5 6 8 10 8 8 8 12 13 14 14 15 19 16 17 21 16 14 12 9 8 8 7 7 8 8 8 8
55 73 81 54 63 68 78 82 66 71 34 18 19 28 18 9 6 6 7 9 10 8 8 10 14 14 15 15 18 20 18 19 24 20 15 11 9 9 8 8 7 8 8 9 10
85 84 86 52 96 97 98 77 96 53 19 20 23 29 15 8 6 7 9 11 10 8 10 12 14 17 17 19 21 20 19 18 21 17 14 12 10 9 8 8 8 8 9 11 11
72 78 78 99 100 100 90 100 77 19 21 37 43 29 13 7 8 10 11 13 12 11 11 12 14 18 21 21 20 16 17 16 18 14 12 11 10 9 8 8 8 9 10 12 14
97 100 96 100 100 100 100 94 29 23 35 40 34 17 9 7 9 10 10 11 12 12 12 17 18 22 22 21 17 15 13 16 16 12 11 11 10 9 9 9 10 10 11 13 15
100 100 100 100 100 100 99 41 24 39 47 57 30 14 8 9 10 12 11 12 12 12 16 19 21 20 20 18 17 14 12 11 11 11 11 12 11 10 11 11 10 11 12 14 18
100 100 100 100 100 100 60 21 36 49 47 74 24 13 9 10 10 12 12 12 14 15 19 21 22 21 20 18 16 13 13 13 12 11 12 13 12 12 12 13 14 14 14 14 16
100 100 100 100 100 70 25 29 59 94 57 58 17 12 8 10 12 14 15 14 16 19 23 24 26 26 20 17 13 15 14 13 11 10 11 15 11 13 14 14 16 17 19 18 16
100 100 100 100 60 28 26 49 98 86 57 23 15 14 9 10 11 14 14 15 18 22 27 23 28 29 23 20 14 14 15 12 9 9 11 14 12 14 15 15 16 19 19 20 21
100 100 100 52 30 30 45 58 99 53 26 18 16 15 11 10 12 12 14 18 20 23 23 24 34 33 27 24 20 15 12 10 9 9 10 12 14 15 15 16 17 18 20 24 23
100 96 67 31 25 44 53 74 100 25 22 18 16 16 16 11 12 12 13 20 21 20 20 24 40 40 31 27 22 17 15 12 11 10 10 11 11 13 14 17 17 18 21 24 28
93 72 29 28 36 58 59 97 100 26 21 18 18 17 17 13 12 11 13 19 22 23 22 23 43 45 40 32 31 25 20 20 16 14 12 12 11 13 14 18 18 16 16 24 30
79 40 29 37 58 74 63 100 96 27 20 18 18 19 19 17 13 12 12 17 20 23 25 25 43 50 51 40 41 38 35 25 22 22 20 18 16 16 19 22 22 20 16 19 27
50 32 34 48 73 74 68 94 100 38 20 19 20 20 21 21 16 13 14 17 21 22 26 28 52 51 53 54 46 62 61 41 30 22 30 26 22 21 24 27 26 25 19 18 21
37 33 40 45 97 100 100 100 100 55 21 22 21 20 20 23 22 18 17 19 20 25 26 41 54 55 57 55 54 73 82 62 36 24 28 32 30 30 29 33 32 31 23 20 20
41 39 44 52 78 100 96 90 100 62 28 25 22 22 21 22 22 20 20 20 23 30 29 58 54 51 58 58 63 82 94 73 58 36 35 35 33 35 35 34 42 37 27 24 24
42 49 49 69 68 74 75 75 100 73 43 27 25 24 24 22 23 21 20 23 26 30 37 50 54 53 57 61 66 72 94 93 94 59 34 49 42 36 30 36 46 42 34 29 27
44 54 63 67 100 99 99 100 100 84 58 29 29 29 27 24 26 23 21 24 28 29 30 32 34 43 63 66 73 73 72 77 94 70 40 46 51 41 40 38 34 39 39 30 33
64 61 72 62 67 100 100 100 100 100 57 31 31 33 31 29 29 27 26 27 30 34 35 34 35 48 69 84 91 90 72 70 100 96 57 61 66 51 37 37 34 36 41 36 33
71 74 70 68 77 91 100 100 100 100 91 66 74 53 37 38 56 54 35 35 33 35 38 38 42 63 82 86 95 100 79 86 100 96 63 55 54 41 30 28 36 36 41 43 38
82 86 82 71 75 79 100 100 100 100 100 100 91 83 84 83 91 80 83 66 46 39 43 51 54 72 77 87 99 100 83 96 98 100 79 63 53 45 42 35 34 35 44 49 41
98 82 84 89 83 90 80 96 100 100 100 100 100 100 100 100 97 83 84 96 91 65 50 59 63 75 85 93 99 100 99 89 100 100 100 80 67 53 49 44 34 37 47 59 47
100 100 73 73 100 89 83 90 97 96 100 100 100 100 100 100 100 96 85 86 96 96 90 89 88 88 91 95 100 100 100 99 100 100 100 100 71 59 56 50 41 42 46 63 54
96 100 100 78 66 91 84 80 96 90 100 100 100 100 95 92 100 100 100 100 100 98 100 100 100 100 100 100 100 100 100 100 97 100 100 100 90 74 75 66 50 50 48 64 60
67 81 86 100 100 100 98 98 95 95 96 100 100 100 99 99 93 92 100 100 100 100 100 100 100 100 100 100 100 98 100 100 100 100 100 100 95 81 75 80 63 61 53 62 67
81 81 94 94 100 100 93 100 100 96 93 100 100 100 100 100 100 100 97 91 100 100 100 100 100 100 100 100 100 100 100 100 100 100 100 100 100 93 88 79 76 68 54 56 69
100 100 100 89 76 90 98 100 98 91 97 92 94 100 100 100 100 91 80 87 97 100 100 100 100 100 100 93 100 100 100 100 100 100 100 100 85 100 100 91 84 79 55 54 70
Wind_Speed
59 54 53 53 53 49 49 46 45 41 33 34 35 31 13 12 9 6 2 5 7 8 10 14 19 21 25 26 29 27 23 18 11 10 9 12 16 19 23 27 26 25 26 25 24
60 58 54 52 52 50 48 49 44 34 33 33 26 15 13 11 9 5 3 5 9 10 10 14 19 23 25 27 28 27 24 18 11 9 11 12 17 22 28 27 26 25 23 25 28
54 54 55 53 50 49 45 47 36 28 31 26 18 13 14 12 9 6 4 5 7 8 10 16 21 24 25 27 28 26 22 16 10 8 9 10 16 22 29 27 26 28 24 28 30
51 52 53 44 41 42 41 35 26 29 21 16 13 13 14 12 7 5 5 6 7 10 14 18 22 25 27 28 27 25 20 15 10 8 10 11 16 23 27 27 26 27 29 29 30
44 44 43 39 32 32 30 24 25 19 17 15 14 13 14 11 7 8 8 8 7 10 15 17 22 25 26 26 26 26 22 15 11 9 11 13 16 21 26 28 27 29 31 32 33
38 34 35 34 32 29 23 23 21 17 19 16 15 15 14 11 8 9 9 5 6 11 14 17 21 23 26 27 26 25 20 16 14 13 14 14 16 21 25 28 29 30 34 36 36
38 34 34 33 28 24 21 20 18 19 18 18 16 16 16 12 10 7 6 7 10 13 13 16 20 24 25 28 26 23 19 17 15 16 16 16 17 22 27 30 33 35 36 38 38
38 34 32 30 22 20 21 20 19 19 20 16 17 17 17 13 9 8 8 10 11 10 13 16 21 23 24 28 25 22 20 18 19 21 18 18 21 25 28 30 34 37 40 41 41
33 28 25 22 19 18 21 20 18 18 16 17 16 16 17 16 11 9 10 11 10 9 12 17 22 23 23 25 25 24 21 21 23 22 20 20 25 27 29 31 34 38 43 45 45
28 25 23 19 18 21 21 20 17 18 18 17 18 16 17 19 15 11 12 12 11 10 13 17 22 23 23 24 24 24 23 25 26 24 23 23 25 29 34 35 37 40 44 48 48
27 24 20 17 18 22 19 20 19 19 19 17 15 17 16 21 19 14 14 12 12 12 15 18 22 23 23 24 24 24 25 26 26 27 28 28 31 35 39 42 44 43 46 50 52
22 20 17 17 20 22 22 18 19 22 19 17 17 16 17 20 23 19 15 14 16 17 18 18 21 22 20 21 22 24 26 27 27 29 31 33 35 38 40 45 50 51 51 53 53
20 19 17 19 21 24 22 18 21 20 18 18 17 17 17 18 20 22 19 17 16 16 19 17 19 21 20 19 21 26 28 29 31 32 33 34 37 39 42 46 52 57 55 55 57
20 18 18 22 22 24 26 22 23 20 19 20 19 17 18 18 19 20 20 19 18 20 16 16 18 20 21 21 23 28 29 30 33 35 35 37 39 42 44 47 51 57 59 59 60
20 17 19 23 24 25 19 24 24 23 22 22 20 18 17 19 20 21 22 20 20 20 16 18 19 21 22 24 23 26 31 31 34 37 39 42 42 43 43 45 51 56 61 63 63
20 19 21 25 27 28 24 24 25 25 22 23 23 18 19 19 19 20 21 20 19 19 18 18 20 22 23 25 26 27 30 34 37 40 42 43 44 46 45 48 51 58 61 65 69
23 23 23 26 32 28 26 27 28 30 26 24 26 23 21 20 21 21 22 20 20 20 20 22 24 24 25 27 29 30 30 32 36 37 41 44 46 49 52 53 52 57 61 65 71
28 26 26 27 24 26 24 24 29 32 29 28 27 25 22 21 22 23 23 22 22 23 24 25 26 27 27 27 31 32 30 31 37 39 40 44 46 48 51 53 57 61 64 65 69
31 28 28 29 30 26 24 24 26 33 34 32 28 28 25 22 23 24 24 25 26 27 29 28 27 26 26 28 32 33 31 32 36 40 42 41 44 46 49 53 55 60 67 71 70
33 30 29 28 36 33 29 26 26 29 37 36 34 31 29 26 25 24 25 26 28 30 30 29 27 26 28 30 32 32 31 32 31 37 42 42 44 47 49 53 57 60 65 69 75
37 34 33 31 32 39 35 29 27 27 31 36 37 36 34 33 30 29 30 29 29 30 29 28 29 28 29 31 32 33 31 32 30 35 42 44 47 51 53 54 59 60 65 68 73
42 38 37 34 34 37 40 38 33 31 29 31 33 35 37 35 33 32 33 33 32 33 32 32 32 32 32 34 36 37 33 34 32 35 42 49 49 52 56 57 60 63 66 68 74
42 44 40 39 40 41 39 40 41 37 34 32 32 32 33 33 36 35 35 35 35 35 36 35 34 35 36 38 36 39 38 36 35 38 42 49 55 56 58 60 63 65 68 68 73
47 42 46 45 45 45 43 42 43 44 42 38 33 33 32 32 33 35 36 38 38 37 37 37 38 39 39 39 36 37 39 39 37 40 42 47 52 57 58 58 62 66 68 68 72
58 52 51 47 51 50 46 46 47 47 46 44 42 39 38 37 36 35 33 34 36 38 37 38 40 42 41 41 40 37 40 42 42 43 44 46 52 55 58 59 62 65 69 69 72
62 61 55 52 53 51 48 51 50 47 49 49 45 43 41 41 38 38 38 37 35 36 35 37 40 41 43 41 41 41 42 44 46 46 46 44 50 56 58 60 62 66 69 70 72
63 64 64 62 60 57 54 52 50 47 49 50 50 49 45 44 46 47 46 45 43 40 38 39 37 38 44 37 41 44 44 46 49 47 46 45 50 54 57 60 63 66 69 71 73
Wind_Direction
253 258 265 269 273 275 281 288 295 296 297 310 321 316 286 285 288 295 298 354 7 9 2 9 4 10 11 12 13 8 9 8 13 24 29 44 31 19 7 360 357 354 352 351 350
249 257 266 268 269 274 280 285 291 289 296 310 317 284 277 272 272 269 300 330 330 357 3 356 1 3 8 5 1 1 2 2 10 22 29 40 19 9 3 0 360 355 357 357 355
255 263 263 264 269 274 280 282 283 285 302 302 300 266 270 267 277 278 300 317 317 340 348 348 354 1 3 358 357 358 2 5 12 31 36 26 9 4 2 360 1 359 352 353 353
256 259 261 262 263 270 273 273 274 295 292 276 260 257 257 262 279 288 313 308 307 330 338 345 355 358 356 356 356 0 4 8 16 24 24 15 3 3 2 357 352 348 345 342 344
251 251 257 255 258 261 269 265 279 293 262 259 262 252 245 248 264 288 286 302 318 338 347 354 358 357 359 0 2 3 7 19 30 19 7 1 359 360 2 358 354 352 346 343 343
243 239 244 247 251 259 255 265 282 264 250 259 250 242 240 238 268 285 284 286 329 341 351 356 358 360 1 2 3 7 18 26 25 11 357 352 356 357 356 358 351 346 346 344 343
238 237 239 248 249 249 253 270 260 248 251 251 245 240 238 238 268 282 299 309 328 343 353 357 360 3 1 2 3 9 13 12 14 5 356 344 345 353 351 352 351 350 349 348 346
236 235 243 246 244 247 265 269 247 247 248 238 239 238 235 243 258 278 303 316 323 344 353 355 359 1 1 5 7 7 7 6 2 355 360 344 341 347 344 347 347 348 349 346 349
235 240 236 240 240 261 266 243 239 233 231 240 239 239 235 240 254 276 301 313 306 337 343 352 358 360 2 5 9 8 5 3 3 1 1 352 344 346 346 346 345 348 349 344 345
235 233 230 228 248 255 244 233 230 229 229 235 242 247 237 239 251 273 304 306 291 318 335 346 354 358 0 4 6 8 7 4 4 1 356 1 353 357 357 352 348 350 349 346 344
228 230 223 242 254 233 239 234 239 227 230 236 244 250 249 240 247 262 293 300 293 319 327 340 346 355 357 1 6 6 6 4 2 355 352 359 354 357 358 1 357 351 349 347 345
223 225 234 244 232 229 233 243 239 229 231 234 249 256 254 241 244 257 279 296 289 307 321 327 337 349 353 359 359 358 358 2 0 355 354 353 351 353 354 1 2 356 351 348 345
224 229 242 232 221 232 233 251 237 232 229 232 242 252 255 250 249 252 267 286 294 307 315 315 330 341 341 347 349 349 352 355 356 353 354 350 350 351 353 358 360 359 353 347 347
229 238 242 231 223 229 237 243 240 230 229 232 243 252 257 254 253 256 262 274 289 305 306 311 326 332 333 328 333 343 342 349 348 348 350 351 350 350 353 354 356 355 353 349 348
233 242 242 233 220 221 235 239 241 229 228 235 245 256 262 265 256 256 263 271 285 304 301 312 320 322 326 328 328 337 336 341 343 344 348 351 349 351 350 353 352 352 352 351 350
235 236 236 232 232 240 243 242 240 228 230 239 246 255 264 267 259 257 260 268 283 298 301 308 317 321 318 325 324 329 330 336 339 344 343 343 346 349 349 352 352 351 350 351 352
235 235 234 234 235 245 246 244 244 227 232 240 242 250 259 264 263 264 261 263 276 290 300 303 310 317 320 317 319 322 323 332 335 333 335 339 344 345 349 350 350 348 350 350 351
231 231 232 234 234 239 246 259 243 229 234 243 247 252 258 260 263 266 263 262 272 285 290 297 305 311 315 318 318 317 316 320 322 327 333 337 339 342 345 346 346 346 349 351 350
231 230 230 234 238 238 246 257 254 238 235 241 249 255 261 265 267 267 267 267 272 281 287 290 298 306 310 314 316 315 311 315 323 325 328 331 334 338 341 343 345 345 346 347 350
229 234 234 232 236 244 244 251 258 254 241 241 248 254 260 266 269 272 272 272 275 281 285 288 293 301 306 309 315 312 308 313 318 318 320 328 331 333 336 341 343 345 346 346 346
231 235 238 234 239 242 243 249 252 255 253 248 250 255 258 262 268 271 273 274 276 280 286 289 294 298 303 305 315 311 303 308 311 314 317 322 327 331 335 338 342 343 344 345 346
233 236 238 241 242 242 244 245 248 252 255 256 260 264 262 263 264 269 273 276 279 279 283 288 291 295 301 303 311 312 303 303 307 317 321 321 323 326 330 335 338 341 344 344 344
241 238 242 242 245 244 245 247 250 251 253 255 255 259 265 268 266 268 271 276 279 281 279 283 287 293 298 302 310 312 309 304 305 315 325 322 319 325 329 331 335 339 343 343 343
240 242 245 243 248 248 248 248 250 251 250 252 257 257 259 264 270 274 276 279 278 279 284 288 291 294 296 299 306 307 308 310 308 313 322 321 321 325 327 331 333 338 340 341 341
240 239 242 246 248 250 250 248 248 250 251 254 257 259 261 262 266 269 275 280 281 277 280 284 287 291 295 296 302 303 306 308 310 311 318 323 320 322 324 329 332 336 338 339 339
242 241 239 239 245 248 251 252 254 253 253 254 257 257 255 257 258 263 267 274 280 283 281 282 285 289 293 294 298 301 304 308 309 310 316 321 321 323 324 326 331 335 336 337 339
244 242 242 244 245 247 246 248 253 254 255 255 255 253 253 255 260 265 267 272 275 278 283 283 284 289 290 296 296 298 300 304 306 309 314 318 317 320 322 326 330 334 334 336 338